Location: Unspecified
(47.9110°N, 14.3980°E)
Time: 17:53:56
(UTC+00:00)

Spot 4 - Pass Details

Date: 06 August 2020
Orbit: 704 x 723 km, 98.3° (Epoch: 25 September)

Event Time Altitude Azimuth Distance (km) Brightness Sun altitude
Exits shadow 21:32:46 48° 108° (ESE) 930 4.1 -22.3°
Maximum altitude 21:33:36 55° 71° (ENE) 858 4.1 -22.3°
Drops below altitude 10° 21:38:19 10° 354° (N) 2,204 7.4 -22.6°
Sets 21:40:38 0° 350° (N) 3,132 8.5 -22.8°
